Location: Acheville
(50.3840°N, 2.8827°E)
Time: 15:25:17
(UTC+00:00)

SJ-11-01 - Pass Details

Date: 24 October 2021
Orbit: 685 x 700 km, 97.9° (Epoch: 28 November)

Event Time Altitude Azimuth Distance (km) Brightness Sun altitude
Rises 18:10:09 0° 169° (S) 3,049 7.5 -15.2°
Reaches altitude 10° 18:12:23 10° 171° (S) 2,139 6.7 -15.5°
Maximum altitude 18:17:04 75° 257° (WSW) 724 4.5 -16.3°
Drops below altitude 10° 18:21:49 10° 343° (NNW) 2,166 7.1 -17.1°
Sets 18:24:06 0° 345° (NNW) 3,090 7.9 -17.4°
